THOR ABLESTAR DEB, 355

Orbit data source: Space-Track

THOR ABLESTAR DEB, 355 is space debris in LEO originally from a launch on Thu, 29 Jun 1961 UTC launched from the Air Force Eastern Test Range (AFETR). Debris objects in space refer to the collection of defunct objects orbiting the Earth. Examples of debris include non-operational satellites, rocket bodies, and fragments generated from explosions, collisions, or faulty payload assembly.

Loading next visibility...
Identifier
355, 1961-015DV
Orbit
LEO
Last TLE update
1 day ago
Origin
Manufacturer
Unknown
Mission
Spacecraft
Bus & Motor
Unknown
Mass
Unknown
Launch date (UTC)
1961-06-29 (64 years ago)
Launch vehicle
Unknown
Launch site
Air Force Eastern Test Range (AFETR)
Object type
Payload
Rocket body
Debris
Shape & HBR
Unknown
Radar Cross Section
Medium (>0.1 m² and <1 m²)

Expand to show TLE details & history

TLE from 1 day ago
0 THOR ABLESTAR DEB
1 00355U 61015DV  25128.51324822  .00000501  00000-0  97536-3 0  9990
2 00355  67.2242 170.2523 0236070 133.8651 335.5534 13.33663757 95054
Epoch: 2025-05-08T12:19Z
Definitive object data (Epoch: 2025-05-08T12:19:04.646Z)
Latitude
61.22456°
Longitude
-110.60942°
Altitude
981.939 km
Speed
7.445 km/s
True Right ascension
20h 02m 58s
True Declination
61° 05' 01"
Sunlit
Object was in daylight at TLE epoch
Visualization TLE readout
Latitude
-62.7129°
Longitude
62.28812°
Altitude
1,312.845 km
Speed
7.125 km/s
Apparent Right ascension
10h 24m 57s
Apparent Declination
-57° 42' 48"
Sunlit
Object is in daylight
Visualization observer readout
Local Sidereal Time
00:21:51
Azimuth
143.252° SSE
Elevation
-64.157°
Doppler factor
1
Orbital elements
Apogee altitude
1,308.642 km
Perigee altitude
954.089 km
Semi-major axis
7,509.503 km
Eccentricity
0.023607
Inclination
67.2242°
RAAN
170.2523°
Arg. of periapsis
133.8651°
True anomaly
334.40309°
Mean anomaly
335.5534°
Eccentric anomaly
334.98138°
Mean motion
3.33523 °/min
BSTAR
0.00097536
Orbital period
107.94 mins
Loading maneuver chart data...
Loading SW <> Apogee altitude chart data...

THOR ABLESTAR DEB Visibility forecast

Observer location: undefined°, undefined°

Span
Click to sort rows by Start time (UTC) header in descending order
Start Az.
Max El. time (UTC)
Max El. Az.
Max El.
End time (UTC)
End Az.
13 mins2025-05-10 03:28:24.931Z182.453° SSW2025-05-10 03:35:24.931Z102.016° ESE36.982°2025-05-10 03:41:24.931Z39.824° NE
10 mins2025-05-10 05:21:24.931Z253.06° W2025-05-10 05:26:24.931Z311.907° NW29.327°2025-05-10 05:31:24.931Z8.521° NNE
10 mins2025-05-10 12:57:24.931Z341.923° N2025-05-10 13:02:24.931Z77.531° E40.648°2025-05-10 13:07:24.931Z136.864° SSE
7 mins2025-05-10 14:49:24.931Z289.773° WNW2025-05-10 14:52:24.931Z254.931° W19.12°2025-05-10 14:56:24.931Z212.68° SW
|